Flight Track Log - Related Links

Times and Time Zones

All times are in EDT time to prevent confusion due to time zone crossing. See the EJA951 flight status page for this flight to view local times or setup timezone preferences in your user account.

Time Position Orientation Groundspeed Altitude Reporting Facility
EDT Latitude Longitude Course Direction KTS MPH feet Rate Location/Type
Wed 03:04:43 PM 35.4000 -97.5894 North 149 171 1,900  Level Fort Worth Center
Wed 03:06:07 PM 35.4817 -97.5772 North 217 250 6,700 3,340 Climbing Fort Worth Center
Wed 03:06:20 PM 35.4914 -97.5789 352° North 240 276 7,300 3,194 Climbing Fort Worth Center
Wed 03:07:09 PM 35.5517 -97.5819 358° North 243 280 10,000 3,443 Climbing Fort Worth Center
Wed 03:07:21 PM 35.5678 -97.5836 355° North 258 297 10,800 2,000 Climbing Fort Worth Center
Wed 03:08:18 PM 35.6281 -97.5883 356° North 268 308 12,300 1,462 Climbing Kansas City Center
Wed 03:09:20 PM 35.7194 -97.5947 357° North 315 362 13,700 1,258 Climbing Kansas City Center
Wed 03:10:00 PM 35.7791 -97.5833 North  Level FlightAware Approximate
Wed 03:10:22 PM 35.8444 -97.5803 North 368 423 14,900  Level Kansas City Center
Wed 03:11:24 PM 35.9475 -97.5442 16° North 380 437 15,900 1,355 Climbing Kansas City Center
Wed 03:12:26 PM 36.0475 -97.4969 21° North 380 437 17,700 1,935 Climbing Kansas City Center
Wed 03:13:28 PM 36.1458 -97.4450 23° Northeast 380 437 19,900 1,742 Climbing Kansas City Center
Wed 03:14:30 PM 36.2494 -97.3950 21° North 387 445 21,300 1,161 Climbing Kansas City Center
Wed 03:15:32 PM 36.3606 -97.3428 21° North 417 480 22,300 919 Climbing Kansas City Center
Wed 03:16:34 PM 36.5014 -97.2764 21° North 445 512 23,200 1,440 Climbing Kansas City Center
Wed 03:17:37 PM 36.6194 -97.2200 21° North 449 517 25,300 1,968 Climbing Kansas City Center
Wed 03:18:39 PM 36.7394 -97.1658 20° North 456 525 27,300 1,645 Climbing Kansas City Center
Wed 03:19:41 PM 36.8625 -97.1281 14° North 456 525 28,700 1,452 Climbing Kansas City Center
Wed 03:20:43 PM 36.9928 -97.0956 11° North 454 522 30,300 1,500 Climbing Kansas City Center
Wed 03:21:45 PM 37.1206 -97.0597 13° North 461 531 31,800 1,355 Climbing Kansas City Center
Wed 03:22:47 PM 37.2494 -97.0258 12° North 466 536 33,100 1,161 Climbing Kansas City Center
Wed 03:23:49 PM 37.4003 -96.9856 12° North 476 548 34,200 919 Climbing Kansas City Center
Wed 03:24:51 PM 37.5386 -96.9494 12° North 483 556 35,000 387 Climbing Kansas City Center
Wed 03:25:53 PM 37.6764 -96.9117 12° North 483 556 35,000  Level Kansas City Center
Wed 03:26:55 PM 37.8136 -96.8739 12° North 484 557 35,000  Level Kansas City Center
Wed 03:27:57 PM 37.9408 -96.8392 12° North 484 557 35,000  Level Kansas City Center
Wed 03:28:59 PM 38.0769 -96.8025 12° North 481 554 35,000  Level Kansas City Center
Wed 03:30:02 PM 38.2131 -96.7658 12° North 480 552 35,000  Level Kansas City Center
Wed 03:31:04 PM 38.3475 -96.7283 12° North 473 544 35,000  Level Kansas City Center
Wed 03:32:06 PM 38.4847 -96.6922 12° North 476 548 35,000  Level Kansas City Center
Wed 03:33:08 PM 38.6089 -96.6569 13° North 476 548 35,000  Level Kansas City Center
Wed 03:34:10 PM 38.7550 -96.6167 12° North 476 548 35,000  Level Kansas City Center
Wed 03:35:12 PM 38.8778 -96.5831 12° North 475 547 35,000  Level Kansas City Center
Wed 03:36:14 PM 38.9981 -96.5492 12° North 466 536 35,000  Level Kansas City Center
Wed 03:37:16 PM 39.1333 -96.5103 13° North 446 513 35,000 -435 Level Kansas City Center
Wed 03:38:18 PM 39.2544 -96.4772 12° North 459 528 34,100 -1,113 Descending Kansas City Center
Wed 03:39:20 PM 39.3933 -96.4383 12° North 459 528 32,700 -1,258 Descending Kansas City Center
Wed 03:40:22 PM 39.5111 -96.4050 12° North 456 525 31,500 -1,210 Descending Kansas City Center
Wed 03:41:24 PM 39.6475 -96.3650 13° North 450 518 30,200 -1,344 Descending Kansas City Center
Wed 03:42:27 PM 39.7611 -96.3333 12° North 436 502 28,700 -1,440 Descending Kansas City Center
Wed 03:43:29 PM 39.8731 -96.3019 12° North 421 484 27,200 -1,597 Descending Kansas City Center
Wed 03:44:31 PM 40.0019 -96.2661 12° North 399 459 25,400 -1,548 Descending Kansas City Center
Wed 03:45:33 PM 40.1117 -96.2350 12° North 401 461 24,000 -1,355 Descending Kansas City Center
Wed 03:46:35 PM 40.2156 -96.2072 12° North 380 437 22,600 -1,403 Descending Kansas City Center
Wed 03:47:37 PM 40.3164 -96.1919 North 366 421 21,100 -1,500 Descending Kansas City Center
Wed 03:48:39 PM 40.4200 -96.1756 North 367 422 19,500 -1,652 Descending Minneapolis Center
Wed 03:48:46 PM 40.4378 -96.1572 38° Northeast 377 434 19,200 -1,500 Descending Minneapolis Center
Wed 03:49:47 PM 40.5375 -96.1461 North 351 404 17,800 -1,231 Descending Minneapolis Center
Wed 03:50:43 PM 40.6156 -96.1458 360° North 349 402 16,800 -984 Descending Minneapolis Center
Wed 03:50:48 PM 40.6286 -96.1306 42° Northeast 314 361 16,800 -1,000 Level Minneapolis Center
Wed 03:51:49 PM 40.6994 -96.0950 21° North 263 303 15,700 -1,721 Descending Minneapolis Center
Wed 03:52:50 PM 40.7661 -96.0600 22° Northeast 263 303 13,300 -2,331 Descending Minneapolis Center
Wed 03:53:50 PM 40.8408 -96.0186 23° Northeast 274 315 11,000 -2,370 Descending Minneapolis Center
Wed 03:54:49 PM 40.9056 -95.9894 19° North 268 308 8,600 -2,557 Descending Minneapolis Center
Wed 03:54:51 PM 40.9078 -95.9833 64° Northeast 254 292 8,400 -2,806 Descending Minneapolis Center
Wed 03:55:51 PM 40.9675 -95.9542 20° North 257 296 5,700 -2,754 Descending Minneapolis Center
Wed 03:55:52 PM 40.9703 -95.9486 56° Northeast 245 282 5,600 -1,672 Descending Minneapolis Center
Wed 03:56:52 PM 41.0292 -95.9231 18° North 247 284 4,000 -776 Descending Minneapolis Center
Wed 03:57:48 PM 41.0908 -95.9044 13° North 234 269 4,100  Climbing Minneapolis Center
Wed 03:57:54 PM 41.0911 -95.9028 78° East 238 274 4,000 -400 Descending Minneapolis Center
Wed 03:58:48 PM 41.1608 -95.8881 North 245 282 3,700 -197 Descending Minneapolis Center
Wed 03:58:55 PM 41.1569 -95.8892 192° South 237 273 3,800 -806 Climbing Minneapolis Center
Wed 03:59:55 PM 41.2211 -95.8506 24° Northeast 217 250 2,800 -871 Descending Minneapolis Center
Wed 03:59:57 PM 41.2142 -95.8522 190° South 233 268 2,900 -1,031 Climbing Minneapolis Center
Wed 04:00:59 PM 41.2672 -95.8561 357° North 197 227 1,700 -1,108 Descending Minneapolis Center
Wed 04:01:02 PM 41.2703 -95.8642 297° West 146 168 1,700 -590 Level Minneapolis Center
Wed 04:02:00 PM 41.2964 -95.8844 330° Northwest 159 183 1,100 -621 Descending Minneapolis Center

Login

Don't have an account? Register now (free) for customized features, flight alerts, and more!